Location: Newark
(43.6583°N, 1.6617°E)
Time: 10:00:30
(UTC+00:00)

Tiangong 2 - Visible Passes

Search period start: 16 July 2019 00:00
Search period end: 26 July 2019 00:00
Orbit: 378 x 386 km, 42.8° (Epoch: 16 July)

Date Brightness Start Highest point End Pass type
(mag) Time Alt. Az. Time Alt. Az. Time Alt. Az.
16 Jul 1.0 20:36:54 10° W 20:40:03 75° S 20:42:39 14° E visible
16 Jul 3.2 22:13:41 10° W 22:14:47 18° WSW 22:14:47 18° WSW visible
17 Jul 1.4 21:13:15 10° W 21:16:18 48° SSW 21:16:58 39° SSE visible
18 Jul 1.1 20:12:54 10° W 20:16:00 64° S 20:19:06 10° ESE visible
18 Jul 3.1 21:49:53 10° W 21:51:17 18° WSW 21:51:17 18° WSW visible
19 Jul 2.0 20:49:19 10° W 20:52:11 34° SSW 20:53:28 23° SSE visible
20 Jul 3.3 21:26:22 10° WSW 21:27:49 14° SW 21:27:49 14° SW visible
21 Jul 2.7 20:25:28 10° W 20:28:00 23° SSW 20:30:03 13° SSE visible
23 Jul 3.4 20:01:52 10° WSW 20:03:45 15° SSW 20:05:37 10° S visible
